Content
SEND FEEDBACK

Daily
Averages
Monthly
Summary
United States of America

WYNNEWOOD, OKLAHOMA


Home > North America > United States > Oklahoma
Elevation: 967 feet     Latitude: 34 42N     Longitude: 097 13W

WEATHER
 
SELECT A DAY
Number of Records: 329,867;   Date Range: 12/21/00 - 10/29/14
 
SHARE

PRINT THIS DATA

[ ← Previous Day ]
WEATHER ALMANAC - JANUARY 3, 2013
[ Next Day → ]
[ °C ]   °F
Weather ElementAverageHighLow
Temperature33.1 °F44.6 °F (1:55 pm)23 °F (7:55 am)
Dewpoint24.6 °F30.2 °F (12:15 pm)21.2 °F (7:55 am)
Humidity73.7 %93 % (12:35 am)43 % (2:35 pm)
Barometer30.42 in30.48 in (10:35 am)30.33 in (12:35 am)
Wind Speed6.1 mph12.7 mph (2:35 pm)
Wind Gust17.3 mph (2:35 pm)
Weather ElementAverage
Visibility10 mi
Wind DirectionNW (311.6 °)

Weather ElementTotal
Precipitation---
Heating Degree Days31.2 (Base 65)
Averaged from 70 records on January 3, 2013
WEATHER CONDITIONS BREAKOUT
WIND DIRECTION BREAKOUT
WEATHER BY HOUR - JANUARY 3, 2013
[ °C ]   °F
Local TimeTemperatureDewpointHumidityBarometerVisibilityWind DirectionWind SpeedGust SpeedPrecipitationEventsConditions
12:35 AM28.4 °F26.6 °F93 %30.33 in10.0 miNW (320°)6.9 mph
12:55 AM28.4 °F24.8 °F86 %30.33 in10.0 miNW (320°)5.8 mph
1:15 AM28.4 °F24.8 °F86 %30.33 in10.0 miNW (310°)5.8 mph
1:35 AM26.6 °F24.8 °F93 %30.33 in10.0 miNW (310°)6.9 mph
1:55 AM26.6 °F24.8 °F93 %30.33 in10.0 miNW (310°)6.9 mph
2:15 AM28.4 °F24.8 °F86 %30.34 in10.0 miNW (310°)6.9 mph
2:35 AM26.6 °F24.8 °F93 %30.35 in10.0 miNW (320°)4.6 mph
2:55 AM26.6 °F24.8 °F93 %30.35 in10.0 miNW (310°)4.6 mph
3:15 AM26.6 °F23.0 °F86 %30.36 in10.0 miNW (320°)5.8 mph
3:35 AM26.6 °F24.8 °F93 %30.36 in10.0 miNW (320°)6.9 mph
3:55 AM26.6 °F24.8 °F93 %30.36 in10.0 miNW (310°)6.9 mph
4:15 AM26.6 °F24.8 °F93 %30.36 in10.0 miNW (310°)6.9 mph
4:35 AM26.6 °F24.8 °F93 %30.37 in10.0 miNW (310°)6.9 mph
4:55 AM26.6 °F24.8 °F93 %30.37 in10.0 miNW (310°)8.1 mph
5:15 AM26.6 °F24.8 °F93 %30.38 in10.0 miNW (310°)8.1 mph
5:35 AM26.6 °F23.0 °F86 %30.38 in10.0 miNW (310°)6.9 mph
5:55 AM24.8 °F23.0 °F93 %30.39 in10.0 miNW (310°)5.8 mph
6:15 AM24.8 °F23.0 °F93 %30.40 in10.0 miNW (320°)5.8 mph
6:35 AM24.8 °F23.0 °F93 %30.40 in10.0 miWNW (300°)5.8 mph
6:55 AM24.8 °F23.0 °F93 %30.41 in10.0 miWNW (300°)5.8 mph
7:35 AM24.8 °F23.0 °F93 %30.43 in10.0 miWNW (300°)4.6 mph
7:55 AM23.0 °F21.2 °F93 %30.44 in10.0 miCalm
8:15 AM26.6 °F23.0 °F86 %30.44 in10.0 miNW (310°)4.6 mph
8:35 AM28.4 °F26.6 °F93 %30.44 in10.0 miNW (310°)5.8 mph
8:55 AM30.2 °F26.6 °F86 %30.45 in10.0 miNW (310°)5.8 mph
9:15 AM30.2 °F26.6 °F86 %30.46 in10.0 miNW (320°)4.6 mph
9:35 AM32.0 °F28.4 °F87 %30.47 in10.0 miNNW (330°)6.9 mph
9:55 AM32.0 °F28.4 °F87 %30.46 in10.0 miNNW (340°)8.1 mph
10:15 AM32.0 °F28.4 °F87 %30.47 in10.0 miNNW (330°)8.1 mph
10:35 AM33.8 °F28.4 °F81 %30.48 in10.0 miNNW (330°)6.9 mph
10:55 AM35.6 °F28.4 °F75 %30.47 in10.0 miNNW (340°)4.6 mph
11:15 AM37.4 °F28.4 °F70 %30.46 in10.0 miNNW (340°)4.6 mph
11:35 AM37.4 °F28.4 °F70 %30.46 in10.0 miNNW (330°)5.8 mph
11:55 AM39.2 °F28.4 °F65 %30.45 in10.0 miNW (310°)4.6 mph
12:15 PM41.0 °F30.2 °F65 %30.45 in10.0 miCalm
12:35 PM41.0 °F28.4 °F61 %30.43 in10.0 miNorth (360°)4.6 mph
12:55 PM42.8 °F28.4 °F57 %30.42 in10.0 miNorth (350°)5.8 mph
1:15 PM42.8 °F28.4 °F57 %30.41 in10.0 miNNW (330°)9.2 mph
1:35 PM42.8 °F26.6 °F53 %30.40 in10.0 miNorth (350°)6.9 mph
1:55 PM44.6 °F26.6 °F49 %30.40 in10.0 miNNW (330°)9.2 mph
2:15 PM44.6 °F24.8 °F46 %30.41 in10.0 miNNW (330°)8.1 mph
2:35 PM44.6 °F23.0 °F43 %30.40 in10.0 miNNW (330°)12.7 mph17.3 mph
2:55 PM44.6 °F23.0 °F43 %30.40 in10.0 miNNW (340°)10.4 mph
3:15 PM44.6 °F23.0 °F43 %30.41 in10.0 miNW (320°)11.5 mph16.1 mph
3:35 PM44.6 °F23.0 °F43 %30.41 in10.0 miNNW (330°)11.5 mph
3:55 PM44.6 °F23.0 °F43 %30.41 in10.0 miNNW (340°)8.1 mph
4:15 PM44.6 °F23.0 °F43 %30.41 in10.0 miNNW (340°)9.2 mph
4:35 PM42.8 °F23.0 °F46 %30.41 in10.0 miNNW (340°)9.2 mph
4:55 PM42.8 °F23.0 °F46 %30.41 in10.0 miNW (320°)9.2 mph
5:15 PM41.0 °F23.0 °F49 %30.41 in10.0 miNNW (330°)6.9 mph
5:35 PM37.4 °F23.0 °F56 %30.41 in10.0 miNNW (340°)6.9 mph
5:55 PM37.4 °F23.0 °F56 %30.43 in10.0 miNNW (330°)5.8 mph
6:15 PM37.4 °F23.0 °F56 %30.43 in10.0 miNNW (330°)4.6 mph
6:35 PM35.6 °F23.0 °F60 %30.44 in10.0 miNNW (330°)4.6 mph
6:55 PM33.8 °F23.0 °F65 %30.44 in10.0 miNNW (330°)4.6 mph
7:15 PM33.8 °F23.0 °F65 %30.45 in10.0 miNW (320°)3.5 mph
7:35 PM33.8 °F23.0 °F65 %30.45 in10.0 miNNW (330°)4.6 mph
7:55 PM33.8 °F23.0 °F65 %30.44 in10.0 miNNW (340°)4.6 mph
8:15 PM33.8 °F23.0 °F65 %30.44 in10.0 miNorth (350°)4.6 mph
8:35 PM32.0 °F23.0 °F69 %30.45 in10.0 miNNW (340°)4.6 mph
8:55 PM30.2 °F23.0 °F75 %30.46 in10.0 miNW (320°)3.5 mph
9:15 PM32.0 °F23.0 °F69 %30.46 in10.0 miNNW (340°)4.6 mph
9:35 PM32.0 °F23.0 °F69 %30.45 in10.0 miNorth (350°)5.8 mph
9:55 PM28.4 °F23.0 °F80 %30.46 in10.0 miNW (320°)5.8 mph
10:15 PM30.2 °F23.0 °F75 %30.46 in10.0 miNNW (330°)4.6 mph
10:35 PM30.2 °F23.0 °F75 %30.46 in10.0 miNNW (330°)3.5 mph
10:55 PM30.2 °F23.0 °F75 %30.46 in10.0 miNorth (350°)5.8 mph
11:15 PM26.6 °F23.0 °F86 %30.47 in10.0 miNNW (330°)4.6 mph
11:35 PM28.4 °F23.0 °F80 %30.47 in10.0 miNW (320°)3.5 mph
11:55 PM28.4 °F23.0 °F80 %30.47 in10.0 miCalm
Hourly data recorded from KPVJ, located miles away from Wynnewood, Oklahoma







STORIES FROM OUR PARTNERS